Location: Newark
(44.9861°N, 0.2536°E)
Time: 20:06:41
(UTC+00:00)

HuskySat-1 - Pass Details

Date: 18 July 2020
Orbit: 457 x 471 km, 51.6° (Epoch: 11 August)

Event Time Altitude Azimuth Distance (km) Brightness Sun altitude
Rises 22:29:41 0° 259° (WSW) 2,498 ? -20.7°
Reaches altitude 10° 22:31:54 10° 266° (W) 1,621 ? -20.8°
Maximum altitude 22:35:25 45° 340° (NNW) 648 ? -21.1°
Drops below altitude 10° 22:38:56 10° 54° (NE) 1,617 ? -21.3°
Sets 22:41:09 0° 61° (ENE) 2,491 ? -21.5°
